sat.trackr.live / text

‹ back to catalog

LEMUR-2-DELOITTE-1

NORAD 63259 · 2025-052BB

PAYLOAD ACTIVE UNKNOWN

§ Identity

Operator
Country
US
Launch date
2025-03-15
Launch site
AFWTR
Launch vehicle
Mass (kg)
RCS (m²)

Purposes: earth_obs

External: N2YO · Heavens-Above · Gunter

§ Orbital elements

Epoch: 2026-05-25T03:10:25.598208Z

Period
96.17 min
Inclination
97.6957°
Eccentricity
0.0002208
Mean motion
14.97412683 rev/d
Perigee alt
573.4 km
Apogee alt
576.4 km
Semi-major
6,953.0 km
B*
2.8542e-4
RAAN
38.2401°
Arg perigee
116.5293°
Mean anomaly
243.6155°
Rev number
6,524

§ Raw data

LEMUR-2-DELOITTE-11 63259U 25052BB  26145.13224072  .00003262  00000+0  28542-3 0  99942 63259  97.6957  38.2401 0002208 116.5293 243.6155 14.97412683 65245

JSON: /api/v1/satellites/63259 · /tle

For live sub-satellite position, see the globe view (requires WebGL).

§ Visibility from observer

Set your observer location to see the next 7 days of passes ≥ 10°. The values pass through the URL so the page stays shareable.

No JS? Fill the form by hand. The geolocation button needs JavaScript.